Sei sulla pagina 1di 3

CLASSIFICA ASSOLUTA

MONTE ISOLA 8.8 SWIM domenica 09


SETTEMBRE 2018
Cronometraggio Kaiman Card
CL KC TEMPO COGNOME NOME M/F ANNO GRUPPO

1 455 1:59:43,98 CIPANI MATTEO M 1987 CANOTTIERI GARDA SALO'


2 1208 1:59:49,93 SAVIA DANIELE M 1986 TRILAKE
3 24 2:00:20,36 ORIZIO BRUNO M 1989 FREGASASS DEL NAVILI
4 1218 2:00:31,92 CATTANEO ELISA F 2001 ///
5 1053 2:02:04,78 FEDELI DIEGO M 1987 CANOTTIERI BISSOLATI
6 724 2:04:16,90 VITTORIALI ALBERTO M 1981 ///
7 874 2:08:01,56 ZANOLLI CRISTIAN M 1978 ///
8 821 2:11:11,03 GIAVARDI ANDREA M 1978 CANOTTIERI BISSOLATI
9 1128 2:11:13,86 LUPO LORENZO M 2002 ///
10 202 2:11:24,43 FINAZZI GIUSEPPE M 1982 OLIMPIC SWIM PRO VILLONGO
11 1058 2:11:51,81 MARAZZI GIULIA F 1993 ///
12 21 2:12:08,63 GALEONE SERGIO M 1987 I FREGASAS DEL NAVILI
13 1303 2:12:40,57 ORESTILLI PAOLO M 1980 SPORT CENTER PARMA
14 1323 2:12:42,55 GORLA CLAUDIO M 1966 SPORTING LODI
15 207 2:13:18,19 PERFETTI PAOLO M 1978 AQUATIC CENTER
16 1322 2:14:28,91 PILLOUD MARCO M 1968 ACQUATIC CENTER TEAM ZURICH
17 1050 2:17:05,87 BESTETTI SIMONE DANIELE M 1986 ///
18 236 2:18:23,23 TUROTTI ALAN M 1982 OLIMPIC SWIM PRO VILLONGO
19 1057 2:19:43,07 FESTA ANDREA M 2002 ALBATROS LUMEZZANE
20 27 2:19:48,42 BILABINI STEFANO M 1967 A.S.D. TROLETTI TEAM
21 669 2:20:02,14 CONCONI GIAMPIETRO M 1963 STEEL TRIATHLON BG
22 691 2:20:10,48 CARRO GUIDO M 1979 TIBIDIDABO
23 122 2:20:33,55 FOSSATI CARLO ALBERTO M 1970 NUOTATORI RIVAROLESI
24 1063 2:20:51,18 VECCHIO IACOPO M 1981 AICS PAVIA NUOTO
25 1056 2:21:06,17 SHEYKO ANDREY M 1984 ///
26 891 2:21:36,52 CERUTI ATENA F 2002 GIRINI
27 407 2:21:36,66 BRESCIANI SIMONE M 1994 CANOTTIERI GARDA SALO'
28 694 2:21:47,71 ROTA MARCO M 1991 TROTE SALMONATE
29 379 2:22:09,30 PEROLARI MARIA LINA F 1967 TROTE SALMONATE
30 751 2:22:24,75 BETTONI FRANCESCA F 1974 PiùmatTi
31 984 2:23:02,87 ALBERTI DANIELE M 1985 TIBIDABO SSD
32 1059 2:23:05,85 LORENZI CHIARA F 1999 TROTE SALMONATE
33 73 2:23:20,29 CARMINATI SIMONE M 1974 ///
34 15 2:24:04,67 ARIOLI DAVIDE M 1985 SIS NUOTO VERONA
35 1324 2:24:36,87 MOSCHINI MAURO M 1976 ///
36 1126 2:24:53,50 PIACENTINI SIMONE M 1978 SPORTING LODI
37 549 2:24:55,17 SONZOGNI DANIEL M 1978 ///
38 1078 2:25:36,39 TREZZI DAVIDE M 1996 HAPPY SPORT TEAM VARESE
39 1321 2:26:40,38 ANDREOLETTI PIETRO M 1987 ///
40 902 2:26:46,02 FOCHESATO LUCA M 1974 ///
41 1336 2:26:48,40 FERRETTI GIOVANNI M 1970 ///
42 420 2:27:09,17 CARSANA LUCA M 1970 ///
43 406 2:27:20,34 RUSHAJ ERVIN M 1981 I FREGASAS DEL NAVILI
44 1272 2:27:29,98 RAVELLI LAURETTA F 1966 GONZAGA SPORT CLUB MILANO
45 1331 2:28:49,32 DELLA FONTANAMASSIMO M 1969 C.S. BRUNO CREDARO SONDRIO
46 976 2:28:49,36 RUSCONI MAURIZIO M 1963 C.S. BRUNO CREDARO SONDRIO
47 1286 2:28:58,85 BORALI FABIO M 1969 CLOROLESI TREVIGLIO
48 1243 2:31:03,49 RONCALLI CLAUDIO MASSIMOM 1980 ///
49 599 2:31:07,00 NESPOLI CRISTIAN M 1970 ///
50 30 2:31:18,98 CONTADO GIULIO M 1987 ///
51 129 2:33:35,20 CARTELLA GIANMARIO M 1970 S.S.D. TIBIDABO
52 81 2:35:09,08 ESPOSITO FABIO M 1981 OLIMPIC SWIM PRO VILLONGO
53 804 2:35:10,03 TONINI ANDREA
VERONICA
M 1973 SIS NUOTO VERONA
54 323 2:35:58,73 SANDRINI
GIULIA
F 1989 SWIMMER INSIDE
55 1301 2:36:46,93 REALE RAFFAELLA F 1971 ///
56 1337 2:36:50,74 CORRADINI LUCA M 1974 Polisportiva Sport Center Parma
57 788 2:37:04,40 ABBIATICI GABRIELE ELVIO M 2001 ALBATROS LUMEZZANE
58 662 2:38:19,60 VERI FERRUCCIO M 1969 CLOROLESI TREVIGLIO
59 816 2:38:50,71 VENTURELLI LUIGI M 1975 ///
60 55 2:38:52,10 VITELLI LUIGI M 1977 EUROPA SPORTING CLUB BS
61 1026 2:39:20,10 SCOTUZZI ALESSANDRO M 1975 EUROPA SPORTING CLUB BS
62 101 2:39:23,96 CORIO LUCA M 1975 NUOTO PIANO
63 1113 2:40:02,59 TOMELLERI DANIELE M 1983 NUOTO MASTER VERONA
64 555 2:40:04,08 BECCALLI ROSANNA F 1967 STRADIVARI NUOTO
65 1308 2:40:05,00 NOSSA RICCARDO M 1972 CLOROLESI TREVIGLIO
66 908 2:40:49,45 NARDI FEDERICA F 1990 SSD A SCHIANTARELLI
67 607 2:40:55,22 ARCHETTI GIANCARLO M 1975 PiùmatTi
68 1295 2:41:11,66 TERZONI DANIELE M 1967 ///
69 1210 2:41:14,63 POLONI FRANCESCO M 1974 ///
70 799 2:41:45,08 OTTOLINI FULVIO M 1979 CHIARI SWIM TEAM MASTER
71 472 2:41:54,82 MUSCIO FULVIO M 1968 GAM TEAM
72 1297 2:43:59,37 MANENTE ALESSANDRO M 1973 ///
73 1327 2:44:22,07 DEANOZ MARIE CLAIRE F 1983 CILO
74 581 2:44:31,48 MALTEMPI ALESSANDRO M 1969 ///
75 1326 2:45:18,61 ALTIN OEZLEM F 1981 ACQUATIC CENTER TEAM ZURICH
76 54 2:45:38,64 PILLOUD JEANNINE F 1964 ACQUATIC MASTERS TEAM
77 421 2:45:40,68 TEDONE GIOVANNI M 1958 ///
78 1330 2:46:04,88 GALASIO DAVIDE M 1964 C.S. BRUNO CREDARO SONDRIO
79 10 2:46:09,93 DOMENIGHINI GIACOMO M 1983 226 VALLECAMONICA TRIATHLON
80 689 2:48:18,40 BUCCHIERI GIANLORENZO M 1964 MASTER BERGAMO
81 1255 2:49:00,40 SCAGLIOTTI LORENA F 1966 TROTE SALMONATE
82 1288 2:49:08,51 SHIYKO OLEKSANDR M 1984 CLOROLESI TREVIGLIO
83 666 2:49:10,00 ZAMBETTI FEDERICO M 1985 226 VALLECAMONICA TRIATHLON
84 211 2:49:22,51 BARBIERI IVAN M 1982 Le Paperelle di Rossana
85 210 2:49:23,51 CREMONESI TIZIANO M 1970 Le paperelle di Rossana
86 707 2:49:50,58 VILLA GIUSEPPE M 1969 STEEL TRIATHLON BG
87 1294 2:51:31,74 MANGANOTTI ALBERTO M 1978 NUOTO MASTER VR IN-SPORT
88 163 2:51:56,75 COSTANTINI CARLO M 1961 ACQUACLUB BARZANO'
89 327 2:53:35,03 MONTESANTI GIUSEPPE M 1976 VIMERCATE NUOTO
90 1135 2:54:59,75 BARILANI ROLANDO M 1958 ASD CHIAVENNA NUOTO
91 1088 2:56:55,39 PILONI ROBERTO M 1975 ///
92 1141 2:57:58,51 DRAGHICEVICH MABEL F 1963
93 547 2:58:05,19 GAMBA FABIO M 1978 PiùmatTi
94 752 2:58:05,45 BREGOLI MAURO M 1966 PiùmatTi
95 974 2:59:25,62 SALINETTI PAOLO M 1964 C.S. BRUNO CREDARO SONDRIO
96 823 2:59:28,87 VITALI MARCO M 1980 ///
97 1140 3:00:57,93 POZZUOLO LUCA M 1969
98 949 3:01:07,57 VANTADORI SERGIO M 1977 EUROPA SPORTING CLUB BS
99 1161 3:02:23,21 VITALI MATTEO M 1978 ///
100 14 3:02:35,79 AMORE LORENZO M 1974 EUROPA SPORTING CLUB BS
101 208 3:02:38,71 PINI SARA F 1974 Le Paperelle di Rossana
102 218 3:02:38,73 ROBOTTI CINZIA F 1977 Le paperelle di Rossana
103 33 3:03:15,92 PERSONENI FABIO M 1982 ///
104 1062 3:03:32,69 GOTTARDO MAURIZIO M 1962 GAM TEAM
105 1066 3:06:00,00 AYZENBERG EKATERINA F 1978 VIRTUS BUONCONVENTO
106 782 3:06:08,83 TABONE CARLA F 1985 EUROPA SPORTING CLUB BS
107 23 3:07:33,65 MARTINELLI ALESSANDRO M 1981 MOLA MIA-OLIMPIC SWIM
108 1334 3:11:16,21 PENZO LUISA F 1977 FUMANE TRIATHLON
109 1224 3:11:36,45 FENZI ANDREA GIUSEPPEM 1968 ///
110 1320 3:12:00,12 PAGANI ANTONIO M 1966 OLIMPIC TRIATHLON VILLONGO
111 1328 3:12:27,52 GOGLIO ELENA F 1987 ///
112 1094 3:14:14,33 BERTONCINI GIOVANNI ZIVAGO M 1971 ANDREANA SACRA FAMIGLIA
113 745 3:15:05,15 OUENDAG JEROEN M 1959 ///
114 1332 3:15:23,05 BERCINI ANNAMARIA F 1969 DE AKKER TE AM S.S.D.
115 1333 3:15:43,27 POZZI ANNA FAUSTA F 1962 NAUTILUS
116 893 3:16:03,83 CARELLI NICOLE F 2002 GIRINI
117 1223 3:16:51,10 MARIANI RENZO M 1965 TRIATHLON TEAM BRIANZA
118 12 3:19:00,68 NODARI COSMAN M 1976 EUROPA SPORTING CLUB BS
119 221 3:20:58,11 TRIONI MONICA F 1975 Le Paperelle di Rossana
120 209 3:21:10,64 RANZENIGO RENATO M 1959 Le Paperelle di Rossana
121 892 3:23:15,45 CARELLI MARCO M 1968 GIRINI
122 645 3:23:31,34 FONTANA PAOLO M 1971 EUROPA SPORTING CLUB BS
123 890 3:30:10,29 CERUTI LUCA M 1975 GIRINI
124 25 3:37:36,08 PARMINI GIACOMO M 1970 MOLA MIA-OLIMPIC SWIM
125 663 3:40:54,28 CORTINOVIS ALBINO M 1970 ///
126 1054 3:45:00,72 ROTA MAURIZIO M 1957 MONZA MARATHON TEAM
127 1325 3:45:35,88 RAVELLI LAURA F 1977 GAM TEAM
128 430 no PATTINI SERGIO MAURO M 1966 ///
129 630 no OLIVIERI UGO M 1963 FREEZONE
130 734 no MARIANI MARIKA F 1973 ///
131 1139 no MAGGIONI ROBERTA F 1979 CANOTTIERI LECCO
132 1267 no ZANALDA FRANCESCO M 1961 EFFETTO SPORT BARZANO'
133 1269 no CICERI CLAUDIO M 1969 ///
134 1335 rit MASSARI GIANLUCA M 1975 ///
135 93 rit CUCINOTTA SANNY M 1976 EUROPA SPORTING CLUB BS
136 400 rit FRASSINE GIANPAOLO M 1968 ///
137 1329 rit FENI MARCO M 1966 ///

WWW.FEDERICOTROLETTI.IT